Location: Dalton
(34.7700°N, 84.9700°W)
Time: 19:27:34
(UTC-05:00)

Vanguard 2 - Visible Passes

Search period start: 16 December 2017 00:00
Search period end: 26 December 2017 00:00
Orbit: 553 x 2939 km, 32.9° (Epoch: 15 December)

Date Brightness Start Highest point End Pass type
(mag) Time Alt. Az. Time Alt. Az. Time Alt. Az.
16 Dec 8.0 19:08:34 10° W 19:13:20 43° SSW 19:15:09 27° SE visible
17 Dec 8.5 19:26:56 10° W 19:31:16 31° SSW 19:32:37 25° S visible
18 Dec 9.0 19:45:31 10° W 19:49:06 21° SSW 19:50:08 19° S visible
19 Dec 8.3 17:52:50 10° W 17:59:25 55° SSW 18:03:49 10° ESE visible
19 Dec 9.6 20:04:39 10° WSW 20:06:51 13° SW 20:07:45 13° SSW visible
20 Dec 8.7 18:11:12 10° W 18:17:21 43° SSW 18:21:36 10° SE visible
21 Dec 9.2 18:29:41 10° W 18:35:12 31° SSW 18:39:11 10° SSE visible
22 Dec 9.7 18:48:23 10° W 18:52:55 22° SW 18:56:25 10° SSE visible
23 Dec 10.1 19:07:41 10° WSW 19:10:32 14° SW 19:12:59 10° S visible
